Regional Weather Roundup
Issued by NWS

Home | Current Version | Previous Version | Graphics & Text | Print | Product List | Glossary On
Versions: 1 2 3 4 5 6 7 8 9 10 11 12 13 14 15 16 17 18 19 20 21 22 23 24 25 26 27 28 29 30 31 32 33 34 35 36 37 38 39 40 41 42 43 44 45 46 47 48 49 50
000
ASUS45 KBOI 211110
RWRID
WEATHER ROUNDUP FOR IDAHO
NATIONAL WEATHER SERVICE BOISE ID
500 AM MDT MON JUL 21 2014

NOTE: "FAIR" INDICATES FEW OR NO CLOUDS BELOW 12000 FEET
WITH NO SIGNIFICANT WEATHER AND/OR OBSTRUCTIONS TO VISIBILITY

IDZ012-014-211200-
SOUTHWEST IDAHO


CITY           SKY/WX    TMP DP  RH WIND       PRES   REMARKS
BOISE          CLOUDY    73  57  57 SE8       29.91R
CALDWELL       CLOUDY    72  48  43 CALM      29.91R
MOUNTAIN HOME  LGT RAIN  71  62  72 NW6       29.92R
$$

IDZ016-017-211200-
SOUTHCENTRAL IDAHO


CITY           SKY/WX    TMP DP  RH WIND       PRES   REMARKS
BURLEY         MOCLDY    62  53  72 SW6       29.99R
JEROME         MOCLDY    66  55  67 SE7       29.99R
TWIN FALLS     CLOUDY    70  49  47 S12       29.98S
$$

IDZ019>023-211200-
SOUTHEAST IDAHO


CITY           SKY/WX    TMP DP  RH WIND       PRES   REMARKS
IDAHO FALLS    CLOUDY    70  50  49 S15       30.02R
POCATELLO      CLOUDY    71  49  45 SW12      30.02S
REXBURG        CLOUDY    68  48  48 S14       30.01R
$$

IDZ006-010-011-018-031-032-211200-
CENTRAL IDAHO MOUNTAINS


CITY           SKY/WX    TMP DP  RH WIND       PRES   REMARKS
MCCALL         MOCLDY    64  49  57 SE8       29.96R
HAILEY         MOCLDY    59  52  77 CALM      30.05S
STANLEY          N/A     54  52  93 CALM      30.10R
SALMON         CLOUDY    66  54  63 S3        29.92R
CHALLIS        CLOUDY    61  55  81 W3        30.00S
$$

IDZ002-004-006-007-026-211200-
NORTHERN IDAHO


CITY           SKY/WX    TMP DP  RH WIND       PRES   REMARKS
LEWISTON       CLOUDY    65  42  43 W6        29.86R
LOWELL           N/A     63  60  90 N3        29.86R
COEUR D`ALENE  MOCLDY    57  41  54 MISG      29.87R
MULLAN PASS    CLOUDY    48  39  71 VRB3      29.99R
$$



USA.gov is the U.S. government's official web portal to all federal, state and local government web resources and services.